Flag for Brazil Weather past 2 weeks in Criciúma, Santa Catarina, Brazil

Now
66 °F

Passing clouds.


Feels Like: 66 °F
Forecast: 54 / 77 °F
Wind: 5 mph from Southwest

Location: Florianopolis Aeroporto


UV Index: 3 (Moderate)

Visibility: N/A


Pressure: 30.04 "Hg

Humidity: 78%

Dew point: 59 °F

Location of CriciúmaLocation

Historic Weather in Criciúma

°F

Criciúma temperature yesterday

Maximum temperature yesterday: 73 °F (at 12:00 PM)
Minimum temperature yesterday: 66 °F (at 3:00 AM)
Average temperature yesterday: 69 °F

Past Weeks' High & Low Weather Summary

 TemperatureHumidityPressure
High84 °F (Apr 6, 2:00 PM)100% (Apr 6, 9:00 AM)30.18 "Hg (Apr 6, 9:00 AM)
Low59 °F (Apr 6, 9:00 AM)47% (Apr 14, 12:00 PM)29.74 "Hg (Apr 9, 3:00 PM)
Average72 °F76%29.98 "Hg
* Reported Apr 6 2:00 AM — Apr 21 2:00 AM, Criciúma, Weather by CustomWeather, © 2014

Note: Actual official high and low records may vary slightly from our data, if they occured in-between our weather recording intervals... More about our weather records

Advertising

Historic Weather Conditions — Data for Previous 24 hours

 ConditionsComfort  
Time TempWeatherWind HumidityBarometerVisibility
2:00 AM
Apr 21
68 °FPassing clouds.5 mph73%30.07 "HgN/A
1:00 AM68 °FPassing clouds.7 mph73%30.07 "HgN/A
12:00 AM68 °FPassing clouds.7 mph73%30.07 "HgN/A
11:00 PM
Apr 20
68 °FPassing clouds.8 mph73%30.09 "HgN/A
10:00 PM68 °FPassing clouds.9 mph78%30.09 "HgN/A
9:00 PM68 °FPassing clouds.12 mph78%30.09 "HgN/A
8:00 PM68 °FPassing clouds.9 mph83%30.07 "HgN/A
7:00 PM70 °FPassing clouds.7 mph78%30.07 "HgN/A
6:00 PM70 °FPassing clouds.8 mph78%30.07 "HgN/A
5:00 PM70 °FPassing clouds.9 mph78%30.04 "HgN/A
4:00 PM72 °FScattered clouds.12 mph73%30.04 "HgN/A
3:00 PM70 °FPartly sunny.10 mph78%30.04 "HgN/A
2:00 PM72 °FScattered showers. Partly sunny.10 mph78%30.04 "HgN/A
1:00 PM72 °FPartly sunny.14 mph78%30.07 "HgN/A
12:00 PM73 °FScattered showers. Partly sunny.9 mph74%30.07 "HgN/A
11:00 AM70 °FPartly sunny.7 mph83%30.07 "HgN/A
10:00 AM68 °FLight rain. Fog.8 mph88%30.07 "Hg2 mi
9:00 AM68 °FLight rain. Fog.7 mph88%30.07 "Hg2 mi
8:00 AM68 °FScattered showers. Fog.8 mph88%30.07 "Hg3 mi
7:00 AM68 °FBroken clouds.9 mph83%30.04 "HgN/A
6:00 AM68 °FPartly sunny.13 mph88%30.01 "HgN/A
5:00 AM66 °FPartly cloudy.5 mph94%30.01 "HgN/A
4:00 AM66 °FPartly cloudy.No wind94%30.01 "HgN/A
3:00 AM66 °FPartly cloudy.No wind94%30.01 "HgN/A
Weather by CustomWeather, © 2014

See weather overview